Time,TemperatureF,DewpointF,PressureIn,WindDirection,WindDirectionDegrees,WindSpeedMPH,WindSpeedGustMPH,Humidity,HourlyPrecipIn,Conditions,Clouds,dailyrainin,SoftwareType,DateUTC
2013-04-18 00:05:00,39.6,31.0,30.36,WSW,248,0.0,-999.0,72,-99.99,,,0.01,weatherlink.com 1.10,2013-04-18 04:05:00,
2013-04-18 00:20:00,37.1,31.0,30.36,WSW,248,0.0,-999.0,77,-99.99,,,0.01,weatherlink.com 1.10,2013-04-18 04:20:00,
2013-04-18 00:35:00,35.5,30.0,30.37,WSW,248,0.0,-999.0,81,-99.99,,,0.00,weatherlink.com 1.10,2013-04-18 04:35:00,
2013-04-18 00:50:00,34.9,30.0,30.35,WSW,248,0.0,-999.0,83,-99.99,,,0.00,weatherlink.com 1.10,2013-04-18 04:50:00,
2013-04-18 01:05:00,35.2,31.0,30.35,WSW,248,0.0,-999.0,83,-99.99,,,0.00,weatherlink.com 1.10,2013-04-18 05:05:00,
2013-04-18 01:20:00,33.9,30.0,30.36,WSW,248,0.0,-999.0,85,-99.99,,,0.00,weatherlink.com 1.10,2013-04-18 05:20:00,
2013-04-18 01:35:00,33.4,30.0,30.35,WSW,248,0.0,-999.0,87,-99.99,,,0.00,weatherlink.com 1.10,2013-04-18 05:35:00,
2013-04-18 01:50:00,33.5,30.0,30.35,WSW,248,0.0,-999.0,88,-99.99,,,0.00,weatherlink.com 1.10,2013-04-18 05:50:00,
2013-04-18 02:05:00,33.6,30.0,30.34,WSW,248,0.0,-999.0,88,-99.99,,,0.00,weatherlink.com 1.10,2013-04-18 06:05:00,
2013-04-18 02:20:00,33.0,30.0,30.33,WSW,248,0.0,-999.0,89,-99.99,,,0.00,weatherlink.com 1.10,2013-04-18 06:20:00,
2013-04-18 02:35:00,33.1,30.0,30.33,WSW,248,0.0,-999.0,88,-99.99,,,0.00,weatherlink.com 1.10,2013-04-18 06:35:00,
2013-04-18 02:50:00,32.7,30.0,30.33,WSW,248,0.0,-999.0,88,-99.99,,,0.00,weatherlink.com 1.10,2013-04-18 06:50:00,
2013-04-18 03:05:00,32.3,30.0,30.34,WSW,248,0.0,-999.0,90,-99.99,,,0.00,weatherlink.com 1.10,2013-04-18 07:05:00,
2013-04-18 03:20:00,32.7,31.0,30.35,WSW,248,0.0,-999.0,92,-99.99,,,0.00,weatherlink.com 1.10,2013-04-18 07:20:00,
2013-04-18 03:35:00,33.1,31.0,30.35,WSW,248,0.0,-999.0,93,-99.99,,,0.00,weatherlink.com 1.10,2013-04-18 07:35:00,
2013-04-18 03:50:00,33.7,32.0,30.35,WSW,248,0.0,-999.0,93,-99.99,,,0.00,weatherlink.com 1.10,2013-04-18 07:50:00,
2013-04-18 04:05:00,34.0,32.0,30.35,WSW,246,0.0,-999.0,93,-99.99,,,0.00,weatherlink.com 1.10,2013-04-18 08:05:00,
2013-04-18 04:20:00,34.3,32.0,30.35,WSW,240,2.0,-999.0,91,-99.99,,,0.00,weatherlink.com 1.10,2013-04-18 08:20:00,
2013-04-18 04:35:00,35.7,32.0,30.34,SE,137,2.0,-999.0,87,-99.99,,,0.00,weatherlink.com 1.10,2013-04-18 08:35:00,
2013-04-18 04:50:00,37.2,33.0,30.33,SE,141,0.0,-999.0,83,-99.99,,,0.00,weatherlink.com 1.10,2013-04-18 08:50:00,
2013-04-18 05:05:00,34.6,31.0,30.33,South,184,0.0,-999.0,87,-99.99,,,0.00,weatherlink.com 1.10,2013-04-18 09:05:00,
2013-04-18 05:20:00,34.2,31.0,30.33,South,184,1.0,-999.0,89,-99.99,,,0.00,weatherlink.com 1.10,2013-04-18 09:20:00,
2013-04-18 05:35:00,34.0,31.0,30.33,South,184,0.0,-999.0,90,-99.99,,,0.00,weatherlink.com 1.10,2013-04-18 09:35:00,
2013-04-18 05:50:00,33.7,31.0,30.35,SW,218,1.0,-999.0,90,-99.99,,,0.00,weatherlink.com 1.10,2013-04-18 09:50:00,
2013-04-18 06:05:00,33.8,31.0,30.35,SW,218,3.0,-999.0,90,-99.99,,,0.00,weatherlink.com 1.10,2013-04-18 10:05:00,
2013-04-18 06:20:00,34.4,32.0,30.35,SW,218,0.0,-999.0,90,-99.99,,,0.00,weatherlink.com 1.10,2013-04-18 10:20:00,
2013-04-18 06:35:00,35.0,32.0,30.35,SW,218,0.0,-999.0,90,-99.99,,,0.00,weatherlink.com 1.10,2013-04-18 10:35:00,
2013-04-18 06:50:00,35.6,33.0,30.35,SSE,158,1.0,-999.0,90,-99.99,,,0.00,weatherlink.com 1.10,2013-04-18 10:50:00,
2013-04-18 07:05:00,37.0,34.0,30.35,SSE,157,0.0,-999.0,89,-99.99,,,0.00,weatherlink.com 1.10,2013-04-18 11:05:00,
2013-04-18 07:20:00,38.3,35.0,30.35,SSE,158,3.0,-999.0,88,-99.99,,,0.00,weatherlink.com 1.10,2013-04-18 11:20:00,
2013-04-18 07:35:00,46.0,33.0,30.34,SE,128,9.0,-999.0,61,-99.99,,,0.00,weatherlink.com 1.10,2013-04-18 11:35:00,
2013-04-18 07:50:00,47.4,33.0,30.33,ESE,120,6.0,-999.0,57,-99.99,,,0.00,weatherlink.com 1.10,2013-04-18 11:50:00,
2013-04-18 08:05:00,48.5,32.0,30.33,SE,132,6.0,-999.0,53,-99.99,,,0.00,weatherlink.com 1.10,2013-04-18 12:05:00,
2013-04-18 08:20:00,49.6,31.0,30.32,South,190,5.0,-999.0,49,-99.99,,,0.00,weatherlink.com 1.10,2013-04-18 12:20:00,
2013-04-18 08:35:00,50.4,30.0,30.32,SSE,156,9.0,-999.0,45,-99.99,,,0.00,weatherlink.com 1.10,2013-04-18 12:35:00,
2013-04-18 08:51:00,51.3,29.0,30.32,SSE,168,4.0,-999.0,43,-99.99,,,0.00,weatherlink.com 1.10,2013-04-18 12:51:00,
2013-04-18 09:06:00,50.9,29.0,30.31,SE,141,4.0,-999.0,44,-99.99,,,0.00,weatherlink.com 1.10,2013-04-18 13:06:00,
2013-04-18 09:21:00,51.0,29.0,30.32,SSW,198,9.0,-999.0,43,-99.99,,,0.00,weatherlink.com 1.10,2013-04-18 13:21:00,
2013-04-18 09:36:00,51.2,29.0,30.32,South,179,10.0,-999.0,43,-99.99,,,0.00,weatherlink.com 1.10,2013-04-18 13:36:00,
2013-04-18 09:51:00,51.1,29.0,30.30,South,187,10.0,-999.0,43,-99.99,,,0.00,weatherlink.com 1.10,2013-04-18 13:51:00,
2013-04-18 10:06:00,51.4,29.0,30.29,SSE,150,11.0,-999.0,43,-99.99,,,0.00,weatherlink.com 1.10,2013-04-18 14:06:00,
2013-04-18 10:21:00,51.8,30.0,30.28,SE,134,18.0,-999.0,44,-99.99,,,0.00,weatherlink.com 1.10,2013-04-18 14:21:00,
2013-04-18 10:36:00,52.2,30.0,30.28,SSE,147,9.0,-999.0,43,-99.99,,,0.00,weatherlink.com 1.10,2013-04-18 14:36:00,
2013-04-18 10:51:00,52.7,31.0,30.29,South,173,7.0,-999.0,44,-99.99,,,0.00,weatherlink.com 1.10,2013-04-18 14:51:00,
2013-04-18 11:06:00,52.3,33.0,30.29,SSE,147,7.0,-999.0,48,-99.99,,,0.00,weatherlink.com 1.10,2013-04-18 15:06:00,
2013-04-18 11:21:00,51.7,34.0,30.29,ESE,123,11.0,-999.0,51,-99.99,,,0.00,weatherlink.com 1.10,2013-04-18 15:21:00,
2013-04-18 11:36:00,50.2,37.0,30.29,SE,134,7.0,-999.0,61,-99.99,,,0.00,weatherlink.com 1.10,2013-04-18 15:36:00,
2013-04-18 11:51:00,49.3,39.0,30.28,SE,140,3.0,-999.0,68,-99.99,,,0.00,weatherlink.com 1.10,2013-04-18 15:51:00,
2013-04-18 12:21:00,49.5,40.0,30.26,SE,136,5.0,-999.0,69,-99.99,,,0.00,weatherlink.com 1.10,2013-04-18 16:21:00,
2013-04-18 12:51:00,52.7,39.0,30.23,SSE,147,3.0,-999.0,61,-99.99,,,0.00,weatherlink.com 1.10,2013-04-18 16:51:00,
2013-04-18 13:06:00,55.1,39.0,30.23,South,173,6.0,-999.0,56,-99.99,,,0.00,weatherlink.com 1.10,2013-04-18 17:06:00,
2013-04-18 13:21:00,56.8,40.0,30.21,SE,142,5.0,-999.0,53,-99.99,,,0.00,weatherlink.com 1.10,2013-04-18 17:21:00,
2013-04-18 13:36:00,57.7,40.0,30.20,SE,124,12.0,-999.0,53,-99.99,,,0.00,weatherlink.com 1.10,2013-04-18 17:36:00,
2013-04-18 13:51:00,59.1,40.0,30.19,SSE,148,14.0,-999.0,49,-99.99,,,0.00,weatherlink.com 1.10,2013-04-18 17:51:00,
2013-04-18 14:21:00,60.2,39.0,30.16,SE,140,12.0,-999.0,46,-99.99,,,0.00,weatherlink.com 1.10,2013-04-18 18:21:00,
2013-04-18 14:36:00,61.5,39.0,30.13,South,179,3.0,-999.0,44,-99.99,,,0.00,weatherlink.com 1.10,2013-04-18 18:36:00,
2013-04-18 14:51:00,64.6,40.0,30.13,South,182,17.0,-999.0,40,-99.99,,,0.00,weatherlink.com 1.10,2013-04-18 18:51:00,
2013-04-18 15:06:00,65.6,38.0,30.12,SSE,150,21.0,-999.0,37,-99.99,,,0.01,weatherlink.com 1.10,2013-04-18 19:06:00,
2013-04-18 15:21:00,64.1,40.0,30.11,South,181,6.0,-999.0,42,-99.99,,,0.01,weatherlink.com 1.10,2013-04-18 19:21:00,
2013-04-18 15:36:00,64.0,39.0,30.10,SW,223,10.0,-999.0,40,-99.99,,,0.01,weatherlink.com 1.10,2013-04-18 19:36:00,
2013-04-18 15:51:00,63.9,40.0,30.10,SW,224,13.0,-999.0,41,-99.99,,,0.01,weatherlink.com 1.10,2013-04-18 19:51:00,
2013-04-18 16:06:00,64.2,40.0,30.09,South,181,7.0,-999.0,41,-99.99,,,0.01,weatherlink.com 1.10,2013-04-18 20:06:00,
2013-04-18 16:21:00,64.4,41.0,30.08,South,181,12.0,-999.0,42,-99.99,,,0.01,weatherlink.com 1.10,2013-04-18 20:21:00,
2013-04-18 16:36:00,64.6,40.0,30.08,SSW,200,11.0,-999.0,41,-99.99,,,0.01,weatherlink.com 1.10,2013-04-18 20:36:00,
2013-04-18 16:51:00,64.3,40.0,30.08,South,174,11.0,-999.0,41,-99.99,,,0.01,weatherlink.com 1.10,2013-04-18 20:51:00,
2013-04-18 17:06:00,64.4,39.0,30.07,South,169,18.0,-999.0,40,-99.99,,,0.01,weatherlink.com 1.10,2013-04-18 21:06:00,
2013-04-18 17:21:00,64.6,40.0,30.06,South,183,10.0,-999.0,41,-99.99,,,0.01,weatherlink.com 1.10,2013-04-18 21:21:00,
2013-04-18 17:36:00,64.5,39.0,30.06,South,189,13.0,-999.0,39,-99.99,,,0.01,weatherlink.com 1.10,2013-04-18 21:36:00,
2013-04-18 17:51:00,63.9,39.0,30.05,South,182,18.0,-999.0,40,-99.99,,,0.01,weatherlink.com 1.10,2013-04-18 21:51:00,
2013-04-18 18:06:00,63.8,39.0,30.04,South,191,16.0,-999.0,41,-99.99,,,0.01,weatherlink.com 1.10,2013-04-18 22:06:00,
2013-04-18 18:21:00,63.4,40.0,30.05,SSW,193,10.0,-999.0,42,-99.99,,,0.01,weatherlink.com 1.10,2013-04-18 22:21:00,
2013-04-18 18:36:00,62.9,39.0,30.04,South,184,13.0,-999.0,42,-99.99,,,0.01,weatherlink.com 1.10,2013-04-18 22:36:00,
2013-04-18 18:51:00,62.7,40.0,30.03,South,171,14.0,-999.0,44,-99.99,,,0.01,weatherlink.com 1.10,2013-04-18 22:51:00,
2013-04-18 19:06:00,62.2,39.0,30.03,SSE,155,7.0,-999.0,43,-99.99,,,0.01,weatherlink.com 1.10,2013-04-18 23:06:00,
2013-04-18 19:21:00,62.0,40.0,30.02,SSE,161,11.0,-999.0,44,-99.99,,,0.01,weatherlink.com 1.10,2013-04-18 23:21:00,
2013-04-18 19:36:00,61.8,40.0,30.03,South,188,9.0,-999.0,45,-99.99,,,0.01,weatherlink.com 1.10,2013-04-18 23:36:00,
2013-04-18 19:51:00,61.3,40.0,30.03,South,181,16.0,-999.0,45,-99.99,,,0.01,weatherlink.com 1.10,2013-04-18 23:51:00,
2013-04-18 20:06:00,60.9,40.0,30.03,South,171,15.0,-999.0,47,-99.99,,,0.01,weatherlink.com 1.10,2013-04-19 00:06:00,
2013-04-18 20:21:00,60.7,40.0,30.03,South,189,20.0,-999.0,47,-99.99,,,0.01,weatherlink.com 1.10,2013-04-19 00:21:00,
2013-04-18 20:36:00,60.6,40.0,30.03,South,177,9.0,-999.0,47,-99.99,,,0.01,weatherlink.com 1.10,2013-04-19 00:36:00,
2013-04-18 20:51:00,60.3,41.0,30.04,SSW,195,6.0,-999.0,49,-99.99,,,0.01,weatherlink.com 1.10,2013-04-19 00:51:00,
2013-04-18 21:07:00,60.1,41.0,30.04,South,185,9.0,-999.0,49,-99.99,,,0.01,weatherlink.com 1.10,2013-04-19 01:07:00,
2013-04-18 21:22:00,59.7,41.0,30.05,South,175,9.0,-999.0,50,-99.99,,,0.01,weatherlink.com 1.10,2013-04-19 01:22:00,
2013-04-18 21:37:00,59.2,41.0,30.04,South,175,4.0,-999.0,51,-99.99,,,0.01,weatherlink.com 1.10,2013-04-19 01:37:00,
2013-04-18 21:52:00,58.6,40.0,30.04,SE,139,10.0,-999.0,51,-99.99,,,0.01,weatherlink.com 1.10,2013-04-19 01:52:00,
2013-04-18 22:07:00,58.2,41.0,30.04,South,187,6.0,-999.0,53,-99.99,,,0.01,weatherlink.com 1.10,2013-04-19 02:07:00,
2013-04-18 22:22:00,58.2,41.0,30.04,South,184,6.0,-999.0,54,-99.99,,,0.01,weatherlink.com 1.10,2013-04-19 02:22:00,
2013-04-18 22:37:00,58.1,41.0,30.04,South,181,10.0,-999.0,54,-99.99,,,0.01,weatherlink.com 1.10,2013-04-19 02:37:00,
2013-04-18 22:52:00,57.8,41.0,30.01,South,186,7.0,-999.0,54,-99.99,,,0.01,weatherlink.com 1.10,2013-04-19 02:52:00,
2013-04-18 23:07:00,58.0,42.0,30.01,South,189,6.0,-999.0,55,-99.99,,,0.01,weatherlink.com 1.10,2013-04-19 03:07:00,
2013-04-18 23:22:00,57.5,41.0,30.00,SE,135,3.0,-999.0,54,-99.99,,,0.01,weatherlink.com 1.10,2013-04-19 03:22:00,
2013-04-18 23:37:00,56.9,40.0,30.00,SSE,163,2.0,-999.0,54,-99.99,,,0.01,weatherlink.com 1.10,2013-04-19 03:37:00,
2013-04-18 23:52:00,57.1,42.0,29.98,SE,127,8.0,-999.0,57,-99.99,,,0.01,weatherlink.com 1.10,2013-04-19 03:52:00,